Simultaneous Nadir Overpasses (SNOs) Predictions

Prediction of SNOs between FY3D and TERRA Satellite Orbit:

Table of predicted SNOs for the next 14.0 days since TLE Epoch: 11/29/2025
Index Date (FY3D) Time (FY3D) Lat,Lon (FY3D) SZA (FY3D ) Date (TERRA) Time (TERRA) Lat,Lon (TERRA) SZA (TERRA ) Distance(km) Time Diff (sec)
1 11/30/2025 03:20:04 78.52, 130.19 100.14 11/30/2025 03:20:04 78.49, 130.18 100.10 4.17 0
2 12/02/2025 12:50:46 78.74, -13.85 100.72 12/02/2025 12:51:55 78.67, -11.95 100.66 42.25 69
3 12/02/2025 13:41:24 -78.52, 154.93 79.49 12/02/2025 13:41:17 -78.54, 155.07 79.48 3.50 7
4 12/04/2025 23:12:01 -78.57, 12.07 79.13 12/04/2025 23:13:11 -78.58, 12.23 79.12 3.67 70
5 12/05/2025 00:02:45 78.52, 179.68 100.84 12/05/2025 00:02:31 78.51, 179.56 100.82 3.03 14
6 12/07/2025 09:33:22 78.57, 36.80 101.17 12/07/2025 09:34:24 78.56, 36.82 101.16 0.62 62
7 12/07/2025 10:24:05 -78.53,-155.64 78.87 12/07/2025 10:23:44 -78.53,-155.66 78.87 0.76 21
8 12/09/2025 19:54:42 -78.58, 61.45 78.59 12/09/2025 19:55:37 -78.58, 61.55 78.58 2.09 55
9 12/09/2025 20:45:26 78.53,-130.93 101.38 12/09/2025 20:44:56 78.54,-130.98 101.38 1.30 30
10 12/12/2025 06:16:02 78.59, 86.13 101.63 12/12/2025 06:16:48 78.56, 86.10 101.60 2.92 46



Historial Predications of SNOs between FY3D and TERRA
